{"data":{"norad_id":62102,"epoch":"2026-05-24T09:58:31.168992Z","epoch_age_seconds":128701,"freshness":"FRESH","line1":"1 62102U 24220Q   26144.41563853  .00006719  00000+0  25343-3 0  9995","line2":"2 62102  42.9998 137.7845 0001100 270.6465  89.4261 15.27583662 84604","mean_motion":15.27583662,"eccentricity":0.00011,"inclination_deg":42.9998,"raan_deg":137.7845,"arg_perigee_deg":270.6465,"mean_anomaly_deg":89.4261,"bstar":0.00025343,"rev_number":8460,"period_min":94.266522732684,"perigee_km":482.28340145178,"apogee_km":483.79285998054,"semimajor_km":6861.1751307162,"source":"CELESTRAK","updated_at":"2026-05-25T13:38:19.560150Z"}}